N281PE SCGZ-SAWH

Flight info

Callsign N281PE
Flight time N/A
Altitude 4000
Route 545600S0674244W DCT 545249S0675235W 545038S0680104W 545017S0681127W
Aircraft C172/L-SFG/C

Departure

Time 2026-04-24 22:07
Airport Guardia Marina Zañartu Airport (SCGZ)

Arrival

Time N/A
Airport Ushuaia - Malvinas Argentinas International Airport (SAWH)
Time Latitude Longitude Altitude Speed Heading
2026-04-24 21:59 -54.93222 -67.61709 57 ft 0 kts 203°
2026-04-24 22:03 -54.93211 -67.61737 58 ft 9 kts
2026-04-24 22:03 -54.93196 -67.61638 57 ft 5 kts 70°
2026-04-24 22:03 -54.93171 -67.61642 58 ft 4 kts 336°
2026-04-24 22:04 -54.93143 -67.61640 61 ft 4 kts 356°
2026-04-24 22:04 -54.93111 -67.61643 62 ft 2 kts 329°
2026-04-24 22:04 -54.93110 -67.61650 62 ft 3 kts 279°
2026-04-24 22:04 -54.93112 -67.61731 63 ft 0 kts 268°
2026-04-24 22:05 -54.93112 -67.61735 63 ft 3 kts 268°
2026-04-24 22:05 -54.93111 -67.62073 66 ft 53 kts 278°
2026-04-24 22:06 -54.93110 -67.62873 105 ft 75 kts 269°
2026-04-24 22:06 -54.93110 -67.63741 297 ft 72 kts 268°
2026-04-24 22:06 -54.93211 -67.64629 428 ft 75 kts 254°
2026-04-24 22:06 -54.93322 -67.65519 540 ft 80 kts 270°
2026-04-24 22:07 -54.93135 -67.66417 677 ft 81 kts 290°
2026-04-24 22:07 -54.92851 -67.67286 788 ft 83 kts 299°
2026-04-24 22:07 -54.92546 -67.68213 822 ft 92 kts 297°
2026-04-24 22:07 -54.92342 -67.69100 238 ft 114 kts 202°
2026-04-24 22:08 -54.92944 -67.69563 35 ft 70 kts 207°
2026-04-24 22:08 -54.93261 -67.69812 1 ft 10 kts 199°